Simultaneous Nadir Overpasses (SNOs) Predictions

Prediction of SNOs between LANDSAT-8 and NOAA-19 Satellite Orbit:

Table of predicted SNOs for the next 14.0 days since TLE Epoch: 10/28/2022
Index Date (LANDSAT-8) Time (LANDSAT-8) Lat,Lon (LANDSAT-8) SZA (LANDSAT-8 ) Date (NOAA-19) Time (NOAA-19) Lat,Lon (NOAA-19) SZA (NOAA-19 ) Distance(km) Time Diff (sec)
1 10/30/2022 15:40:27 80.88, -18.53 96.90 10/30/2022 15:40:06 80.88, -18.54 96.89 0.28 21
2 10/30/2022 16:29:54 -80.88, 149.07 83.10 10/30/2022 16:31:00 -80.88, 148.90 83.09 2.92 66
3 11/01/2022 22:03:38 80.88,-114.37 97.62 11/01/2022 22:03:54 80.88,-114.34 97.63 0.53 16
4 11/04/2022 03:37:22 -80.89, -17.62 81.66 11/04/2022 03:36:38 -80.88, -17.72 81.70 1.88 44
5 11/04/2022 04:26:49 80.87, 149.71 98.30 11/04/2022 04:27:42 80.88, 149.80 98.35 2.06 53
6 11/06/2022 10:00:33 -80.88,-113.61 81.01 11/06/2022 10:00:26 -80.88,-113.52 81.00 1.67 7
7 11/08/2022 15:34:16 80.88, -16.98 99.65 11/08/2022 15:33:19 80.88, -16.84 99.65 2.55 57
8 11/08/2022 16:23:43 -80.88, 150.67 80.34 11/08/2022 16:24:14 -80.88, 150.64 80.33 0.59 31
9 11/10/2022 21:57:26 80.88,-112.79 100.28 11/10/2022 21:57:07 80.89,-112.87 100.27 1.57 19



Historial Predications of SNOs between LANDSAT-8 and NOAA-19
